This is the latest recevied weather packets stored in our database for station/object K5NAN. If no packets are shown the sender has not sent any weather packets the latest 10 day(s).
| Time | Temp. | Humidity | Pressure | Rain* | Wind** | Luminosity | Snow |
|---|---|---|---|---|---|---|---|
| 1777735170 | 19.44° C | 46% | 1020.7 hPa | 0 mm | - | 569 W/m² | - |
| 1777734866 | 18.89° C | 49% | 1020.6 hPa | 0 mm | - | 553 W/m² | - |
| 1777734564 | 18.89° C | 50% | 1020.7 hPa | 0 mm | - | 537 W/m² | - |
| 1777734260 | 18.33° C | 50% | 1020.5 hPa | 0 mm | - | 522 W/m² | - |
| 1777733956 | 17.78° C | 52% | 1020.6 hPa | 0 mm | - | 506 W/m² | - |
| 1777733653 | 17.78° C | 53% | 1020.5 hPa | 0 mm | - | 492 W/m² | - |
| 1777733349 | 17.78° C | 55% | 1020.7 hPa | 0 mm | - | 475 W/m² | - |
| 1777733047 | 17.78° C | 55% | 1020.5 hPa | 0 mm | - | 459 W/m² | - |
| 1777732743 | 17.22° C | 56% | 1020.6 hPa | 0 mm | - | 443 W/m² | - |
| 1777732440 | 16.67° C | 57% | 1020.5 hPa | 0 mm | - | 428 W/m² | - |
| 1777732137 | 16.67° C | 60% | 1020.5 hPa | 0 mm | - | 411 W/m² | - |
| 1777731834 | 16.11° C | 60% | 1020.4 hPa | 0 mm | - | 392 W/m² | - |
| 1777731530 | 16.11° C | 65% | 1020.4 hPa | 0 mm | - | 377 W/m² | - |
| 1777731229 | 15.56° C | 70% | 1020.5 hPa | 0 mm | - | 359 W/m² | - |
| 1777730926 | 15° C | 69% | 1020.5 hPa | 0 mm | - | 342 W/m² | - |
| 1777730624 | 15° C | 71% | 1020.4 hPa | 0 mm | - | 326 W/m² | - |
| 1777730320 | 15° C | 73% | 1020.4 hPa | 0 mm | - | 309 W/m² | - |
| 1777730017 | 14.44° C | 74% | 1020.3 hPa | 0 mm | - | 293 W/m² | - |
| 1777729713 | 13.89° C | 75% | 1020.1 hPa | 0 mm | - | 276 W/m² | - |
| 1777729410 | 13.33° C | 76% | 1020.1 hPa | 0 mm | - | 260 W/m² | - |
| 1777729106 | 13.33° C | 78% | 1020.1 hPa | 0 mm | - | 236 W/m² | - |
| 1777728803 | 12.78° C | 80% | 1020 hPa | 0 mm | - | 209 W/m² | - |
| 1777728500 | 12.78° C | 80% | 1020 hPa | 0 mm | - | 180 W/m² | - |
| 1777728197 | 12.22° C | 81% | 1019.7 hPa | 0 mm | - | 150 W/m² | - |
| 1777727894 | 12.22° C | 82% | 1019.9 hPa | 0 mm | - | 131 W/m² | - |
* Rain latest hour (hover to see other rain measurements)
** Current wind speed in m/s (hover to see current wind gust speed)